Time,TemperatureF,DewpointF,PressureIn,WindDirection,WindDirectionDegrees,WindSpeedMPH,WindSpeedGustMPH,Humidity,HourlyPrecipIn,Conditions,Clouds,dailyrainin,SoftwareType,DateUTC
2013-06-06 00:02:00,60.0,-99.9,-100.00,SE,137,3.0,5.0,-999,0.00,,,0.18,,2013-06-06 05:02:00,
2013-06-06 00:12:00,60.0,-99.9,-100.00,SE,137,3.0,5.0,-999,0.00,,,0.18,,2013-06-06 05:12:00,
2013-06-06 00:23:00,60.0,-99.9,-100.00,SE,137,3.0,5.0,-999,0.00,,,0.18,,2013-06-06 05:23:00,
2013-06-06 00:32:00,59.0,-99.9,-100.00,SSE,147,1.0,3.0,-999,0.00,,,0.18,,2013-06-06 05:32:00,
2013-06-06 00:42:00,59.0,-99.9,-100.00,SSE,147,1.0,3.0,-999,0.00,,,0.18,,2013-06-06 05:42:00,
2013-06-06 00:52:00,59.0,-99.9,-100.00,East,80,2.0,4.0,-999,0.02,,,0.20,,2013-06-06 05:52:00,
2013-06-06 01:02:00,59.0,-99.9,-100.00,East,80,2.0,4.0,-999,0.02,,,0.20,,2013-06-06 06:02:00,
2013-06-06 01:12:00,59.0,-99.9,-100.00,East,80,2.0,4.0,-999,0.02,,,0.20,,2013-06-06 06:12:00,
2013-06-06 01:22:00,59.0,-99.9,-100.00,East,80,2.0,4.0,-999,0.02,,,0.20,,2013-06-06 06:22:00,
2013-06-06 01:33:00,59.0,-99.9,-100.00,ENE,73,2.0,4.0,-999,0.05,,,0.23,,2013-06-06 06:33:00,
2013-06-06 01:42:00,59.0,-99.9,-100.00,ENE,73,2.0,4.0,-999,0.05,,,0.23,,2013-06-06 06:42:00,
2013-06-06 01:52:00,59.0,-99.9,-100.00,NE,39,3.0,4.0,-999,0.03,,,0.23,,2013-06-06 06:52:00,
2013-06-06 02:02:00,59.0,-99.9,-100.00,NE,39,3.0,4.0,-999,0.03,,,0.23,,2013-06-06 07:02:00,
2013-06-06 02:12:00,59.0,-99.9,-100.00,NE,39,3.0,4.0,-999,0.03,,,0.23,,2013-06-06 07:12:00,
2013-06-06 02:22:00,59.0,-99.9,-100.00,NE,39,3.0,4.0,-999,0.03,,,0.23,,2013-06-06 07:22:00,
2013-06-06 02:33:00,58.0,-99.9,-100.00,ENE,77,2.0,4.0,-999,0.00,,,0.23,,2013-06-06 07:33:00,
2013-06-06 02:42:00,58.0,-99.9,-100.00,ENE,77,2.0,4.0,-999,0.00,,,0.23,,2013-06-06 07:42:00,
2013-06-06 02:53:00,58.0,-99.9,-100.00,ENE,77,2.0,4.0,-999,0.00,,,0.23,,2013-06-06 07:53:00,
2013-06-06 03:02:00,58.0,-99.9,-100.00,ENE,78,2.0,4.0,-999,0.00,,,0.23,,2013-06-06 08:02:00,
2013-06-06 03:12:00,58.0,-99.9,-100.00,ENE,78,2.0,4.0,-999,0.00,,,0.23,,2013-06-06 08:12:00,
2013-06-06 03:22:00,58.0,-99.9,-100.00,ENE,78,2.0,4.0,-999,0.00,,,0.23,,2013-06-06 08:22:00,
2013-06-06 03:32:00,58.0,-99.9,-100.00,ENE,69,3.0,5.0,-999,0.00,,,0.23,,2013-06-06 08:32:00,
2013-06-06 03:42:00,58.0,-99.9,-100.00,ENE,69,3.0,5.0,-999,0.00,,,0.23,,2013-06-06 08:42:00,
2013-06-06 03:52:00,58.0,-99.9,-100.00,ENE,61,5.0,6.0,-999,0.00,,,0.23,,2013-06-06 08:52:00,
2013-06-06 04:02:00,58.0,-99.9,-100.00,ENE,61,5.0,6.0,-999,0.00,,,0.23,,2013-06-06 09:02:00,
2013-06-06 04:12:00,58.0,-99.9,-100.00,ENE,61,5.0,6.0,-999,0.00,,,0.23,,2013-06-06 09:12:00,
2013-06-06 04:22:00,58.0,-99.9,-100.00,ENE,61,5.0,6.0,-999,0.00,,,0.23,,2013-06-06 09:22:00,
2013-06-06 04:33:00,58.0,-99.9,-100.00,NE,36,4.0,6.0,-999,0.00,,,0.23,,2013-06-06 09:33:00,
2013-06-06 04:43:00,58.0,-99.9,-100.00,NE,36,4.0,6.0,-999,0.00,,,0.23,,2013-06-06 09:43:00,
2013-06-06 04:53:00,58.0,-99.9,-100.00,NNE,31,6.0,7.0,-999,0.00,,,0.23,,2013-06-06 09:53:00,
2013-06-06 05:03:00,58.0,-99.9,-100.00,NNE,31,6.0,7.0,-999,0.00,,,0.23,,2013-06-06 10:03:00,
2013-06-06 05:12:00,58.0,-99.9,-100.00,NNE,31,6.0,7.0,-999,0.00,,,0.23,,2013-06-06 10:12:00,
2013-06-06 05:23:00,58.0,-99.9,-100.00,NNE,31,6.0,7.0,-999,0.00,,,0.23,,2013-06-06 10:23:00,
2013-06-06 05:33:00,58.0,-99.9,-100.00,ENE,67,5.0,7.0,-999,0.00,,,0.23,,2013-06-06 10:33:00,
2013-06-06 05:42:00,58.0,-99.9,-100.00,ENE,67,5.0,7.0,-999,0.00,,,0.23,,2013-06-06 10:42:00,
2013-06-06 05:53:00,57.0,-99.9,-100.00,ENE,70,4.0,5.0,-999,0.00,,,0.23,,2013-06-06 10:53:00,
2013-06-06 06:03:00,57.0,-99.9,-100.00,ENE,70,4.0,5.0,-999,0.00,,,0.23,,2013-06-06 11:03:00,
2013-06-06 06:12:00,57.0,-99.9,-100.00,ENE,70,4.0,5.0,-999,0.00,,,0.23,,2013-06-06 11:12:00,
2013-06-06 06:23:00,57.0,-99.9,-100.00,ENE,70,4.0,5.0,-999,0.00,,,0.23,,2013-06-06 11:23:00,
2013-06-06 06:32:00,57.0,-99.9,-100.00,NE,40,4.0,5.0,-999,0.00,,,0.23,,2013-06-06 11:32:00,
2013-06-06 06:42:00,57.0,-99.9,-100.00,NE,40,4.0,5.0,-999,0.00,,,0.23,,2013-06-06 11:42:00,
2013-06-06 06:52:00,57.0,-99.9,-100.00,NE,40,4.0,5.0,-999,0.00,,,0.23,,2013-06-06 11:52:00,
2013-06-06 07:00:00,57.0,-99.9,-100.00,NE,42,4.0,6.0,-999,0.00,,,0.23,,2013-06-06 12:00:00,
2013-06-06 07:03:00,57.0,-99.9,-100.00,NE,43,5.0,6.0,-999,0.00,,,0.23,,2013-06-06 12:03:00,
2013-06-06 07:13:00,57.0,-99.9,-100.00,NE,43,5.0,6.0,-999,0.00,,,0.23,,2013-06-06 12:13:00,
2013-06-06 07:23:00,57.0,-99.9,-100.00,NE,43,5.0,6.0,-999,0.00,,,0.23,,2013-06-06 12:23:00,
2013-06-06 07:33:00,57.0,-99.9,-100.00,NE,42,4.0,6.0,-999,0.00,,,0.23,,2013-06-06 12:33:00,
2013-06-06 07:43:00,57.0,-99.9,-100.00,NE,42,4.0,6.0,-999,0.00,,,0.23,,2013-06-06 12:43:00,
2013-06-06 07:53:00,57.0,-99.9,-100.00,NE,42,4.0,6.0,-999,0.00,,,0.23,,2013-06-06 12:53:00,
2013-06-06 08:33:00,58.0,-99.9,-100.00,ENE,67,4.0,6.0,-999,0.00,,,0.23,,2013-06-06 13:33:00,
2013-06-06 08:43:00,58.0,-99.9,-100.00,ENE,67,4.0,6.0,-999,0.00,,,0.23,,2013-06-06 13:43:00,
2013-06-06 08:53:00,58.0,-99.9,-100.00,ENE,67,4.0,6.0,-999,0.00,,,0.23,,2013-06-06 13:53:00,
2013-06-06 09:03:00,58.0,-99.9,-100.00,ENE,66,4.0,6.0,-999,0.00,,,0.23,,2013-06-06 14:03:00,
2013-06-06 09:13:00,58.0,-99.9,-100.00,ENE,66,4.0,6.0,-999,0.00,,,0.23,,2013-06-06 14:13:00,
2013-06-06 09:23:00,58.0,-99.9,-100.00,ENE,66,4.0,6.0,-999,0.00,,,0.23,,2013-06-06 14:23:00,
2013-06-06 09:30:00,58.0,-99.9,-100.00,NE,51,5.0,7.0,-999,0.00,,,0.20,,2013-06-06 14:30:00,
2013-06-06 09:33:00,58.0,-99.9,-100.00,NE,45,4.0,6.0,-999,0.00,,,0.23,,2013-06-06 14:33:00,
2013-06-06 09:43:00,58.0,-99.9,-100.00,NE,45,4.0,6.0,-999,0.00,,,0.23,,2013-06-06 14:43:00,
2013-06-06 09:53:00,58.0,-99.9,-100.00,NE,45,4.0,6.0,-999,0.00,,,0.23,,2013-06-06 14:53:00,
2013-06-06 10:03:00,58.0,-99.9,-100.00,NE,51,5.0,7.0,-999,0.00,,,0.20,,2013-06-06 15:03:00,
2013-06-06 10:13:00,58.0,-99.9,-100.00,NE,51,5.0,7.0,-999,0.00,,,0.20,,2013-06-06 15:13:00,
2013-06-06 10:23:00,58.0,-99.9,-100.00,NE,51,5.0,7.0,-999,0.00,,,0.20,,2013-06-06 15:23:00,
2013-06-06 11:03:00,59.0,-99.9,-100.00,ENE,64,6.0,7.0,-999,0.00,,,0.20,,2013-06-06 16:03:00,
2013-06-06 11:13:00,59.0,-99.9,-100.00,ENE,64,6.0,7.0,-999,0.00,,,0.20,,2013-06-06 16:13:00,
2013-06-06 11:23:00,59.0,-99.9,-100.00,ENE,64,6.0,7.0,-999,0.00,,,0.20,,2013-06-06 16:23:00,
2013-06-06 11:34:00,59.0,-99.9,-100.00,NE,55,6.0,8.0,-999,0.00,,,0.20,,2013-06-06 16:34:00,
2013-06-06 11:44:00,59.0,-99.9,-100.00,NE,55,6.0,8.0,-999,0.00,,,0.20,,2013-06-06 16:44:00,
2013-06-06 11:53:00,59.0,-99.9,-100.00,East,94,3.0,5.0,-999,0.00,,,0.20,,2013-06-06 16:53:00,
2013-06-06 12:03:00,59.0,-99.9,-100.00,East,94,3.0,5.0,-999,0.00,,,0.20,,2013-06-06 17:03:00,
2013-06-06 12:13:00,59.0,-99.9,-100.00,East,94,3.0,5.0,-999,0.00,,,0.20,,2013-06-06 17:13:00,
2013-06-06 12:23:00,59.0,-99.9,-100.00,East,94,3.0,5.0,-999,0.00,,,0.20,,2013-06-06 17:23:00,
2013-06-06 12:33:00,59.0,-99.9,-100.00,East,79,5.0,9.0,-999,0.00,,,0.20,,2013-06-06 17:33:00,
2013-06-06 12:43:00,59.0,-99.9,-100.00,East,79,5.0,9.0,-999,0.00,,,0.20,,2013-06-06 17:43:00,
2013-06-06 12:53:00,59.0,-99.9,-100.00,East,79,5.0,9.0,-999,0.00,,,0.20,,2013-06-06 17:53:00,
2013-06-06 13:03:00,62.0,-99.9,-100.00,East,99,2.0,3.0,-999,0.00,,,0.20,,2013-06-06 18:03:00,
2013-06-06 13:13:00,62.0,-99.9,-100.00,East,99,2.0,3.0,-999,0.00,,,0.20,,2013-06-06 18:13:00,
2013-06-06 13:23:00,62.0,-99.9,-100.00,East,99,2.0,3.0,-999,0.00,,,0.20,,2013-06-06 18:23:00,
2013-06-06 13:33:00,64.0,-99.9,-100.00,ESE,117,1.0,2.0,-999,0.00,,,0.20,,2013-06-06 18:33:00,
2013-06-06 13:43:00,64.0,-99.9,-100.00,ESE,117,1.0,2.0,-999,0.00,,,0.20,,2013-06-06 18:43:00,
2013-06-06 13:53:00,64.0,-99.9,-100.00,ESE,117,1.0,2.0,-999,0.00,,,0.20,,2013-06-06 18:53:00,
2013-06-06 14:00:00,64.0,-99.9,-100.00,North,5,1.0,3.0,-999,0.00,,,0.20,,2013-06-06 19:00:00,
2013-06-06 14:03:00,62.0,-99.9,-100.00,NNE,25,3.0,5.0,-999,0.00,,,0.20,,2013-06-06 19:03:00,
2013-06-06 14:13:00,62.0,-99.9,-100.00,NNE,25,3.0,5.0,-999,0.00,,,0.20,,2013-06-06 19:13:00,
2013-06-06 14:23:00,62.0,-99.9,-100.00,NNE,25,3.0,5.0,-999,0.00,,,0.20,,2013-06-06 19:23:00,
2013-06-06 14:34:00,64.0,-99.9,-100.00,North,5,1.0,3.0,-999,0.00,,,0.20,,2013-06-06 19:34:00,
2013-06-06 14:43:00,64.0,-99.9,-100.00,North,5,1.0,3.0,-999,0.00,,,0.20,,2013-06-06 19:43:00,
2013-06-06 14:53:00,64.0,-99.9,-100.00,North,5,1.0,3.0,-999,0.00,,,0.20,,2013-06-06 19:53:00,
2013-06-06 15:33:00,64.0,-99.9,-100.00,NNW,344,3.0,5.0,-999,0.00,,,0.20,,2013-06-06 20:33:00,
2013-06-06 15:43:00,64.0,-99.9,-100.00,NNW,344,3.0,5.0,-999,0.00,,,0.20,,2013-06-06 20:43:00,
2013-06-06 15:53:00,63.0,-99.9,-100.00,NE,54,5.0,7.0,-999,0.00,,,0.20,,2013-06-06 20:53:00,
2013-06-06 16:03:00,63.0,-99.9,-100.00,NE,54,5.0,7.0,-999,0.00,,,0.20,,2013-06-06 21:03:00,
2013-06-06 16:13:00,63.0,-99.9,-100.00,NE,54,5.0,7.0,-999,0.00,,,0.20,,2013-06-06 21:13:00,
2013-06-06 16:23:00,63.0,-99.9,-100.00,NE,54,5.0,7.0,-999,0.00,,,0.20,,2013-06-06 21:23:00,
2013-06-06 16:30:00,64.0,-99.9,-100.00,ENE,63,6.0,7.0,-999,0.00,,,0.20,,2013-06-06 21:30:00,
2013-06-06 16:33:00,63.0,-99.9,-100.00,NE,48,7.0,10.0,-999,0.00,,,0.20,,2013-06-06 21:33:00,
2013-06-06 16:44:00,63.0,-99.9,-100.00,NE,48,7.0,10.0,-999,0.00,,,0.20,,2013-06-06 21:44:00,
2013-06-06 16:53:00,64.0,-99.9,-100.00,ENE,63,6.0,7.0,-999,0.00,,,0.20,,2013-06-06 21:53:00,
2013-06-06 17:03:00,64.0,-99.9,-100.00,ENE,63,6.0,7.0,-999,0.00,,,0.20,,2013-06-06 22:03:00,
2013-06-06 17:13:00,64.0,-99.9,-100.00,ENE,63,6.0,7.0,-999,0.00,,,0.20,,2013-06-06 22:13:00,
2013-06-06 17:23:00,64.0,-99.9,-100.00,ENE,63,6.0,7.0,-999,0.00,,,0.20,,2013-06-06 22:23:00,
2013-06-06 17:53:00,63.0,-99.9,-100.00,NE,39,7.0,9.0,-999,0.00,,,0.16,,2013-06-06 22:53:00,
2013-06-06 18:03:00,63.0,-99.9,-100.00,NE,39,7.0,9.0,-999,0.00,,,0.16,,2013-06-06 23:03:00,
2013-06-06 18:13:00,63.0,-99.9,-100.00,NE,39,7.0,9.0,-999,0.00,,,0.16,,2013-06-06 23:13:00,
2013-06-06 18:22:00,63.0,-99.9,-100.00,NE,39,7.0,9.0,-999,0.00,,,0.16,,2013-06-06 23:22:00,
2013-06-06 18:33:00,63.0,-99.9,-100.00,NNE,24,6.0,8.0,-999,0.00,,,0.14,,2013-06-06 23:33:00,
2013-06-06 18:43:00,63.0,-99.9,-100.00,NNE,24,6.0,8.0,-999,0.00,,,0.14,,2013-06-06 23:43:00,
2013-06-06 18:52:00,63.0,-99.9,-100.00,NNE,24,6.0,8.0,-999,0.00,,,0.14,,2013-06-06 23:52:00,
2013-06-06 19:02:00,63.0,-99.9,-100.00,North,350,8.0,9.0,-999,0.00,,,0.09,,2013-06-07 00:02:00,
2013-06-06 19:13:00,63.0,-99.9,-100.00,North,350,8.0,9.0,-999,0.00,,,0.09,,2013-06-07 00:13:00,
2013-06-06 19:22:00,63.0,-99.9,-100.00,North,350,8.0,9.0,-999,0.00,,,0.09,,2013-06-07 00:22:00,
2013-06-06 19:32:00,63.0,-99.9,-100.00,North,358,8.0,9.0,-999,0.00,,,0.05,,2013-06-07 00:32:00,
2013-06-06 19:43:00,63.0,-99.9,-100.00,North,358,8.0,9.0,-999,0.00,,,0.05,,2013-06-07 00:43:00,
2013-06-06 19:52:00,62.0,-99.9,-100.00,NNE,19,8.0,10.0,-999,0.00,,,0.05,,2013-06-07 00:52:00,
2013-06-06 20:03:00,62.0,-99.9,-100.00,NNE,19,8.0,10.0,-999,0.00,,,0.05,,2013-06-07 01:03:00,
2013-06-06 20:13:00,62.0,-99.9,-100.00,NNE,19,8.0,10.0,-999,0.00,,,0.05,,2013-06-07 01:13:00,
2013-06-06 20:22:00,62.0,-99.9,-100.00,NNE,19,8.0,10.0,-999,0.00,,,0.05,,2013-06-07 01:22:00,
2013-06-06 20:33:00,62.0,-99.9,-100.00,North,10,8.0,9.0,-999,0.00,,,0.05,,2013-06-07 01:33:00,
2013-06-06 20:42:00,62.0,-99.9,-100.00,North,10,8.0,9.0,-999,0.00,,,0.05,,2013-06-07 01:42:00,
2013-06-06 20:53:00,62.0,-99.9,-100.00,NE,38,8.0,9.0,-999,0.00,,,0.05,,2013-06-07 01:53:00,
2013-06-06 21:02:00,62.0,-99.9,-100.00,NE,38,8.0,9.0,-999,0.00,,,0.05,,2013-06-07 02:02:00,
2013-06-06 21:12:00,62.0,-99.9,-100.00,NE,38,8.0,9.0,-999,0.00,,,0.05,,2013-06-07 02:12:00,
2013-06-06 21:22:00,62.0,-99.9,-100.00,NE,38,8.0,9.0,-999,0.00,,,0.05,,2013-06-07 02:22:00,
2013-06-06 21:32:00,61.0,-99.9,-100.00,NE,41,9.0,10.0,-999,0.00,,,0.05,,2013-06-07 02:32:00,
2013-06-06 21:42:00,61.0,-99.9,-100.00,NE,41,9.0,10.0,-999,0.00,,,0.05,,2013-06-07 02:42:00,
2013-06-06 21:52:00,61.0,-99.9,-100.00,NE,41,9.0,10.0,-999,0.00,,,0.05,,2013-06-07 02:52:00,
2013-06-06 22:02:00,60.0,-99.9,-100.00,NE,56,8.0,10.0,-999,0.00,,,0.05,,2013-06-07 03:02:00,
2013-06-06 22:12:00,60.0,-99.9,-100.00,NE,56,8.0,10.0,-999,0.00,,,0.05,,2013-06-07 03:12:00,
2013-06-06 22:22:00,60.0,-99.9,-100.00,NE,56,8.0,10.0,-999,0.00,,,0.05,,2013-06-07 03:22:00,
2013-06-06 22:33:00,60.0,-99.9,-100.00,NE,47,8.0,10.0,-999,0.00,,,0.05,,2013-06-07 03:33:00,
2013-06-06 22:44:00,60.0,-99.9,-100.00,NE,47,8.0,10.0,-999,0.00,,,0.05,,2013-06-07 03:44:00,
2013-06-06 22:53:00,60.0,-99.9,-100.00,ENE,60,7.0,9.0,-999,0.00,,,0.05,,2013-06-07 03:53:00,
2013-06-06 23:03:00,60.0,-99.9,-100.00,ENE,60,7.0,9.0,-999,0.00,,,0.05,,2013-06-07 04:03:00,
2013-06-06 23:13:00,60.0,-99.9,-100.00,ENE,60,7.0,9.0,-999,0.00,,,0.05,,2013-06-07 04:13:00,
2013-06-06 23:23:00,60.0,-99.9,-100.00,ENE,60,7.0,9.0,-999,0.00,,,0.05,,2013-06-07 04:23:00,
2013-06-06 23:33:00,59.0,-99.9,-100.00,NE,34,4.0,6.0,-999,0.00,,,0.05,,2013-06-07 04:33:00,
2013-06-06 23:42:00,59.0,-99.9,-100.00,NE,34,4.0,6.0,-999,0.00,,,0.05,,2013-06-07 04:42:00,
2013-06-06 23:54:00,59.0,-99.9,-100.00,NNE,32,5.0,6.0,-999,0.00,,,0.05,,2013-06-07 04:54:00,